Location: Chiroubles
(46.1812°N, 4.6660°E)
Time: 16:58:28
(UTC+00:00)

CSL-04 Deb - Pass Details

Date: 15 December 2021
Orbit: 623 x 716 km, 98.3° (Epoch: 27 January)

Event Time Altitude Azimuth Distance (km) Brightness Sun altitude
Rises 06:26:55 0° 33° (NNE) 3,103 ? -8.4°
Reaches altitude 10° 06:30:25 10° 60° (ENE) 2,192 ? -7.9°
Maximum altitude 06:32:43 13° 89° (E) 1,975 ? -7.5°
Drops below altitude 10° 06:35:01 10° 117° (ESE) 2,196 ? -7.2°
Sets 06:38:31 0° 144° (SE) 3,113 ? -6.6°
